Location: Dackenheim
(49.5215°N, 8.1854°E)
Time: 10:44:57
(UTC+00:00)

SeaSat 1 - Pass Details

Date: 19 May 2025
Orbit: 738 x 740 km, 108.0° (Epoch: 23 June)

Event Time Altitude Azimuth Distance (km) Brightness Sun altitude
Exits shadow 19:57:10 - 105° (ESE) 2,674 4.8 -6.8°
Reaches altitude 10° 19:58:24 10° 98° (E) 2,250 4.4 -7.0°
Maximum altitude 20:02:22 25° 44° (NE) 1,456 4.0 -7.4°
Drops below altitude 10° 20:06:20 10° 349° (N) 2,260 5.9 -7.9°
Sets 20:08:55 0° 337° (NNW) 3,188 7.2 -8.2°
